| time (UTC) | temp F | wind direction | speed MPH | gust MPH | rain 1hr in | rain 24hr in | rain mn in | humidity % | barometer mb |
| 20260505054003 | 44 | 255 | 3.0 | 8.0 | 0.00 | 0.00 | 0.00 | 67 | 1009.1 |
| 20260505053503 | 44 | 248 | 3.0 | 10.0 | 0.00 | 0.00 | 0.00 | 68 | 1009.3 |
| 20260505053003 | 44 | 252 | 2.0 | 10.0 | 0.00 | 0.00 | 0.00 | 71 | 1009.1 |
| 20260505052503 | 44 | 246 | 2.0 | 5.0 | 0.00 | 0.00 | 0.00 | 73 | 1008.9 |
| 20260505052003 | 44 | 239 | 3.0 | 10.0 | 0.00 | 0.00 | 0.00 | 73 | 1009.1 |
| 20260505051503 | 43 | 237 | 3.0 | 10.0 | 0.00 | 0.00 | 0.00 | 74 | 1009.1 |
| 20260505051003 | 44 | 242 | 2.0 | 7.0 | 0.00 | 0.00 | 0.00 | 75 | 1008.9 |
| 20260505050503 | 44 | 240 | 2.0 | 7.0 | 0.00 | 0.00 | 0.00 | 76 | 1009.0 |
| 20260505050214 | 44 | 246 | 1.0 | 6.0 | 0.00 | 0.00 | 0.00 | 76 | 1008.9 |
| 20260505041503 | 43 | 246 | 2.0 | 5.0 | 0.00 | 0.00 | 0.00 | 85 | 1008.7 |
| 20260505041003 | 43 | 226 | 1.0 | 5.0 | 0.00 | 0.00 | 0.00 | 86 | 1008.6 |
| 20260505040503 | 42 | 223 | 1.0 | 3.0 | 0.00 | 0.00 | 0.00 | 88 | 1008.6 |
| 20260505040004 | 42 | 223 | 2.0 | 6.0 | 0.00 | 0.00 | 0.00 | 87 | 1008.6 |
| 20260505035504 | 42 | 210 | 2.0 | 6.0 | 0.00 | 0.01 | 0.00 | 87 | 1008.5 |
| 20260505035003 | 43 | 216 | 2.0 | 6.0 | 0.00 | 0.01 | 0.00 | 88 | 1008.4 |
| 20260505034503 | 43 | 216 | 2.0 | 6.0 | 0.00 | 0.01 | 0.00 | 87 | 1008.7 |
| 20260505034003 | 43 | 212 | 3.0 | 6.0 | 0.00 | 0.01 | 0.00 | 87 | 1008.5 |
| 20260505033713 | 43 | 205 | 3.0 | 5.0 | 0.00 | 0.01 | 0.00 | 88 | 1008.5 |
| 20260505033003 | 43 | 199 | 2.0 | 4.0 | 0.00 | 0.01 | 0.00 | 88 | 1008.5 |
| 20260505032503 | 43 | 195 | 2.0 | 5.0 | 0.00 | 0.01 | 0.00 | 88 | 1008.5 |
| 20260505032003 | 43 | 206 | 2.0 | 5.0 | 0.00 | 0.01 | 0.00 | 87 | 1008.5 |
| 20260505031503 | 43 | 210 | 2.0 | 5.0 | 0.00 | 0.01 | 0.00 | 87 | 1008.5 |
| 20260505031003 | 43 | 211 | 2.0 | 5.0 | 0.00 | 0.01 | 0.00 | 87 | 1008.4 |
| 20260505030503 | 44 | 211 | 2.0 | 5.0 | 0.00 | 0.02 | 0.00 | 87 | 1008.3 |
| 20260505030003 | 44 | 205 | 2.0 | 5.0 | 0.00 | 0.02 | 0.00 | 86 | 1008.4 |
| 20260505025712 | 44 | 208 | 2.0 | 5.0 | 0.00 | 0.02 | 0.00 | 86 | 1008.4 |
| 20260505025003 | 44 | 200 | 2.0 | 6.0 | 0.00 | 0.02 | 0.00 | 86 | 1008.4 |
| 20260505024503 | 44 | 198 | 2.0 | 6.0 | 0.00 | 0.02 | 0.00 | 86 | 1008.5 |
| 20260505024003 | 44 | 206 | 2.0 | 7.0 | 0.00 | 0.03 | 0.00 | 86 | 1008.4 |
| 20260505023503 | 44 | 201 | 2.0 | 7.0 | 0.00 | 0.03 | 0.00 | 86 | 1008.7 |
| 20260505023003 | 44 | 190 | 3.0 | 7.0 | 0.00 | 0.03 | 0.00 | 86 | 1008.5 |
| 20260505022503 | 44 | 188 | 2.0 | 5.0 | 0.00 | 0.03 | 0.00 | 86 | 1008.6 |
| 20260505022003 | 44 | 194 | 1.0 | 6.0 | 0.00 | 0.04 | 0.00 | 86 | 1008.5 |
| 20260505021503 | 44 | 189 | 2.0 | 6.0 | 0.00 | 0.04 | 0.00 | 86 | 1008.4 |
| 20260505021003 | 44 | 198 | 3.0 | 6.0 | 0.00 | 0.04 | 0.00 | 86 | 1008.6 |
| 20260505020503 | 44 | 210 | 2.0 | 6.0 | 0.00 | 0.04 | 0.00 | 85 | 1008.7 |
| 20260505020003 | 44 | 210 | 2.0 | 6.0 | 0.00 | 0.04 | 0.00 | 85 | 1008.5 |
| 20260505015503 | 44 | 206 | 3.0 | 10.0 | 0.00 | 0.04 | 0.00 | 85 | 1008.5 |
| 20260505015003 | 44 | 204 | 2.0 | 10.0 | 0.00 | 0.04 | 0.00 | 85 | 1008.5 |
| 20260505014503 | 44 | 209 | 2.0 | 6.0 | 0.00 | 0.04 | 0.00 | 85 | 1008.6 |
| 20260505014213 | 44 | 213 | 2.0 | 6.0 | 0.00 | 0.04 | 0.00 | 85 | 1008.6 |
| 20260505013503 | 44 | 206 | 2.0 | 9.0 | 0.00 | 0.04 | 0.00 | 85 | 1008.6 |
| 20260505013213 | 44 | 207 | 2.0 | 9.0 | 0.00 | 0.04 | 0.00 | 85 | 1008.6 |
| 20260505012503 | 44 | 212 | 3.0 | 8.0 | 0.00 | 0.04 | 0.00 | 84 | 1008.4 |
| 20260505012003 | 44 | 198 | 3.0 | 9.0 | 0.00 | 0.04 | 0.00 | 84 | 1008.6 |
| 20260505011503 | 44 | 197 | 3.0 | 9.0 | 0.00 | 0.04 | 0.00 | 84 | 1008.5 |
| 20260505011003 | 44 | 212 | 3.0 | 11.0 | 0.00 | 0.05 | 0.00 | 84 | 1008.7 |
| 20260505010503 | 44 | 209 | 3.0 | 11.0 | 0.00 | 0.06 | 0.00 | 84 | 1008.9 |
| 20260505010003 | 44 | 197 | 3.0 | 6.0 | 0.00 | 0.07 | 0.00 | 84 | 1008.6 |
| 20260505005714 | 44 | 197 | 2.0 | 6.0 | 0.00 | 0.07 | 0.00 | 84 | 1008.8 |
| 20260505005004 | 44 | 202 | 2.0 | 7.0 | 0.00 | 0.08 | 0.00 | 84 | 1008.7 |
| 20260505004503 | 44 | 208 | 3.0 | 7.0 | 0.00 | 0.08 | 0.00 | 84 | 1008.7 |
| 20260505004003 | 44 | 203 | 3.0 | 9.0 | 0.00 | 0.08 | 0.00 | 83 | 1008.9 |
| 20260505003714 | 44 | 207 | 3.0 | 9.0 | 0.00 | 0.08 | 0.00 | 83 | 1009.0 |
| 20260505003003 | 44 | 205 | 3.0 | 10.0 | 0.00 | 0.09 | 0.00 | 83 | 1008.8 |
| 20260505002503 | 44 | 201 | 3.0 | 10.0 | 0.00 | 0.09 | 0.00 | 84 | 1008.9 |
| 20260505002003 | 44 | 209 | 3.0 | 9.0 | 0.00 | 0.10 | 0.00 | 84 | 1008.8 |
| 20260505001503 | 44 | 215 | 3.0 | 9.0 | 0.00 | 0.12 | 0.00 | 84 | 1008.7 |
| 20260505001212 | 45 | 215 | 3.0 | 9.0 | 0.00 | 0.13 | 0.00 | 83 | 1008.8 |
| 20260505000503 | 44 | 197 | 3.0 | 11.0 | 0.00 | 0.13 | 0.00 | 84 | 1008.8 |
| 20260505000003 | 44 | 203 | 3.0 | 11.0 | 0.00 | 0.14 | 0.00 | 84 | 1008.7 |
| 20260504235503 | 44 | 208 | 3.0 | 11.0 | 0.00 | 0.14 | 0.00 | 84 | 1008.8 |
| 20260504235212 | 44 | 205 | 3.0 | 10.0 | 0.00 | 0.14 | 0.00 | 84 | 1008.8 |
| 20260504234503 | 44 | 207 | 3.0 | 13.0 | 0.00 | 0.15 | 0.00 | 85 | 1008.9 |
| 20260504234212 | 44 | 211 | 4.0 | 13.0 | 0.00 | 0.15 | 0.00 | 84 | 1008.8 |
| 20260504233503 | 44 | 209 | 3.0 | 7.0 | 0.00 | 0.16 | 0.00 | 85 | 1008.9 |
| 20260504233003 | 44 | 202 | 3.0 | 7.0 | 0.00 | 0.16 | 0.00 | 85 | 1008.9 |
| 20260504232503 | 44 | 188 | 3.0 | 8.0 | 0.00 | 0.17 | 0.00 | 85 | 1008.9 |
| 20260504232003 | 44 | 197 | 3.0 | 9.0 | 0.00 | 0.17 | 0.00 | 85 | 1009.0 |
| 20260504231503 | 44 | 203 | 3.0 | 9.0 | 0.00 | 0.17 | 0.00 | 84 | 1009.1 |
| 20260504231003 | 44 | 200 | 3.0 | 9.0 | 0.00 | 0.17 | 0.00 | 85 | 1009.0 |
| 20260504230503 | 44 | 205 | 3.0 | 9.0 | 0.00 | 0.18 | 0.00 | 85 | 1009.0 |
| 20260504230003 | 44 | 206 | 3.0 | 10.0 | 0.00 | 0.18 | 0.00 | 85 | 1008.8 |
| 20260504225503 | 44 | 209 | 4.0 | 10.0 | 0.00 | 0.18 | 0.00 | 85 | 1009.0 |
| 20260504225214 | 44 | 207 | 3.0 | 9.0 | 0.00 | 0.18 | 0.00 | 85 | 1009.0 |
| 20260504224503 | 44 | 187 | 2.0 | 7.0 | 0.00 | 0.18 | 0.00 | 85 | 1009.0 |
| 20260504224003 | 44 | 196 | 3.0 | 11.0 | 0.00 | 0.18 | 0.00 | 85 | 1009.0 |
| 20260504223503 | 44 | 204 | 3.0 | 11.0 | 0.00 | 0.18 | 0.00 | 84 | 1009.0 |
| 20260504223003 | 44 | 212 | 4.0 | 9.0 | 0.00 | 0.18 | 0.00 | 85 | 1009.0 |
| 20260504222503 | 44 | 201 | 5.0 | 9.0 | 0.00 | 0.18 | 0.00 | 84 | 1009.2 |
| 20260504222003 | 44 | 198 | 5.0 | 11.0 | 0.00 | 0.18 | 0.00 | 84 | 1009.1 |
| 20260504221503 | 44 | 200 | 4.0 | 11.0 | 0.00 | 0.18 | 0.00 | 85 | 1009.3 |
| 20260504221003 | 44 | 200 | 4.0 | 9.0 | 0.00 | 0.18 | 0.00 | 84 | 1009.3 |
| 20260504220503 | 44 | 203 | 4.0 | 8.0 | 0.00 | 0.19 | 0.00 | 85 | 1009.2 |
| 20260504220004 | 44 | 204 | 3.0 | 8.0 | 0.00 | 0.19 | 0.00 | 85 | 1009.4 |
| 20260504215503 | 44 | 205 | 3.0 | 13.0 | 0.00 | 0.20 | 0.19 | 84 | 1009.2 |
| 20260504215003 | 44 | 201 | 3.0 | 13.0 | 0.00 | 0.20 | 0.19 | 84 | 1009.2 |
| 20260504214503 | 45 | 205 | 4.0 | 13.0 | 0.00 | 0.20 | 0.19 | 85 | 1009.3 |
| 20260504214213 | 45 | 206 | 3.0 | 9.0 | 0.00 | 0.20 | 0.19 | 84 | 1009.2 |
| 20260504213504 | 44 | 199 | 3.0 | 9.0 | 0.00 | 0.20 | 0.19 | 84 | 1009.3 |
| 20260504213003 | 44 | 200 | 4.0 | 8.0 | 0.00 | 0.20 | 0.19 | 84 | 1009.4 |
| 20260504212503 | 44 | 204 | 3.0 | 8.0 | 0.00 | 0.20 | 0.19 | 84 | 1009.3 |
| 20260504212003 | 44 | 205 | 2.0 | 6.0 | 0.00 | 0.20 | 0.19 | 85 | 1009.2 |
| 20260504211503 | 44 | 200 | 2.0 | 5.0 | 0.00 | 0.20 | 0.19 | 85 | 1009.3 |
| 20260504211003 | 44 | 205 | 2.0 | 8.0 | 0.00 | 0.20 | 0.19 | 84 | 1009.4 |
| 20260504210712 | 44 | 194 | 2.0 | 8.0 | 0.00 | 0.20 | 0.19 | 84 | 1009.3 |
| 20260504210004 | 45 | 202 | 3.0 | 9.0 | 0.00 | 0.20 | 0.19 | 83 | 1009.3 |
| 20260504205503 | 45 | 208 | 3.0 | 7.0 | 0.00 | 0.20 | 0.19 | 83 | 1009.2 |
| 20260504205003 | 45 | 220 | 2.0 | 6.0 | 0.00 | 0.20 | 0.19 | 82 | 1009.3 |
| 20260504204503 | 45 | 219 | 2.0 | 7.0 | 0.00 | 0.20 | 0.19 | 82 | 1009.1 |
| 20260504204003 | 45 | 209 | 3.0 | 7.0 | 0.00 | 0.20 | 0.19 | 81 | 1009.3 |
| 20260504203503 | 45 | 210 | 3.0 | 12.0 | 0.00 | 0.20 | 0.19 | 81 | 1009.2 |
| 20260504203003 | 45 | 209 | 3.0 | 12.0 | 0.00 | 0.20 | 0.19 | 80 | 1009.0 |
| 20260504202714 | 45 | 209 | 3.0 | 12.0 | 0.00 | 0.20 | 0.19 | 80 | 1009.1 |
| 20260504202003 | 46 | 212 | 3.0 | 9.0 | 0.00 | 0.20 | 0.19 | 80 | 1009.2 |
| 20260504201503 | 46 | 213 | 3.0 | 6.0 | 0.00 | 0.20 | 0.19 | 79 | 1009.1 |
| 20260504201003 | 46 | 213 | 3.0 | 6.0 | 0.00 | 0.20 | 0.19 | 78 | 1009.1 |
| 20260504200714 | 46 | 213 | 3.0 | 7.0 | 0.00 | 0.20 | 0.19 | 77 | 1009.1 |
| 20260504200213 | 46 | 199 | 3.0 | 10.0 | 0.00 | 0.20 | 0.19 | 76 | 1009.3 |
| 20260504195503 | 46 | 201 | 3.0 | 6.0 | 0.00 | 0.20 | 0.19 | 75 | 1009.1 |
| 20260504195003 | 46 | 206 | 4.0 | 7.0 | 0.00 | 0.20 | 0.19 | 74 | 1009.1 |
| 20260504194503 | 47 | 212 | 3.0 | 7.0 | 0.00 | 0.20 | 0.19 | 73 | 1009.0 |
| 20260504194003 | 47 | 210 | 4.0 | 9.0 | 0.00 | 0.20 | 0.19 | 71 | 1009.0 |
| 20260504193503 | 47 | 201 | 4.0 | 10.0 | 0.00 | 0.20 | 0.19 | 70 | 1009.0 |
| 20260504193003 | 47 | 194 | 3.0 | 12.0 | 0.00 | 0.20 | 0.19 | 67 | 1008.9 |
| 20260504192504 | 47 | 194 | 3.0 | 12.0 | 0.00 | 0.20 | 0.19 | 66 | 1009.0 |
| 20260504192213 | 47 | 196 | 3.0 | 5.0 | 0.00 | 0.20 | 0.19 | 64 | 1008.9 |
| 20260504191503 | 48 | 201 | 3.0 | 5.0 | 0.00 | 0.20 | 0.19 | 63 | 1008.8 |
| 20260504191003 | 48 | 193 | 3.0 | 10.0 | 0.00 | 0.20 | 0.19 | 62 | 1008.8 |
| 20260504190713 | 48 | 192 | 3.0 | 10.0 | 0.00 | 0.20 | 0.19 | 62 | 1008.7 |
| 20260504190004 | 48 | 197 | 3.0 | 5.0 | 0.00 | 0.20 | 0.19 | 61 | 1008.8 |
| 20260504185503 | 49 | 187 | 2.0 | 6.0 | 0.00 | 0.20 | 0.19 | 61 | 1008.8 |
| 20260504185212 | 49 | 194 | 2.0 | 6.0 | 0.00 | 0.20 | 0.19 | 61 | 1008.7 |
| 20260504184503 | 49 | 204 | 2.0 | 5.0 | 0.00 | 0.20 | 0.19 | 60 | 1008.8 |
| 20260504184003 | 49 | 206 | 1.0 | 3.0 | 0.00 | 0.20 | 0.19 | 58 | 1008.6 |
| 20260504183503 | 50 | 214 | 2.0 | 6.0 | 0.00 | 0.20 | 0.19 | 57 | 1008.7 |
| 20260504183003 | 50 | 209 | 3.0 | 11.0 | 0.00 | 0.20 | 0.19 | 56 | 1008.9 |
| 20260504182503 | 50 | 208 | 3.0 | 11.0 | 0.00 | 0.20 | 0.19 | 55 | 1008.8 |
| 20260504182003 | 50 | 212 | 4.0 | 11.0 | 0.00 | 0.20 | 0.19 | 54 | 1008.7 |
| 20260504181504 | 51 | 212 | 4.0 | 9.0 | 0.00 | 0.20 | 0.19 | 53 | 1008.7 |
| 20260504181003 | 51 | 215 | 4.0 | 9.0 | 0.00 | 0.20 | 0.19 | 52 | 1008.7 |
| 20260504180503 | 51 | 213 | 4.0 | 9.0 | 0.00 | 0.20 | 0.19 | 51 | 1008.7 |
| 20260504180003 | 51 | 204 | 4.0 | 10.0 | 0.00 | 0.20 | 0.19 | 49 | 1008.6 |
| 20260504175503 | 52 | 196 | 4.0 | 10.0 | 0.00 | 0.20 | 0.19 | 47 | 1008.7 |
| 20260504175214 | 52 | 195 | 4.0 | 10.0 | 0.00 | 0.20 | 0.19 | 45 | 1008.7 |
| 20260504174503 | 52 | 217 | 3.0 | 9.0 | 0.00 | 0.20 | 0.19 | 43 | 1008.7 |
| 20260504174003 | 52 | 234 | 3.0 | 7.0 | 0.00 | 0.20 | 0.19 | 42 | 1008.7 |
| 20260504173503 | 53 | 235 | 3.0 | 8.0 | 0.00 | 0.20 | 0.19 | 42 | 1008.7 |
| 20260504173003 | 53 | 220 | 3.0 | 9.0 | 0.00 | 0.20 | 0.19 | 41 | 1008.5 |
| 20260504172503 | 53 | 209 | 4.0 | 11.0 | 0.00 | 0.20 | 0.19 | 40 | 1008.6 |
| 20260504172003 | 53 | 212 | 4.0 | 11.0 | 0.00 | 0.20 | 0.19 | 40 | 1008.5 |
| 20260504171503 | 54 | 221 | 4.0 | 10.0 | 0.00 | 0.20 | 0.19 | 43 | 1008.5 |
| 20260504171003 | 54 | 224 | 4.0 | 10.0 | 0.00 | 0.20 | 0.19 | 43 | 1008.4 |
| 20260504170503 | 54 | 223 | 3.0 | 8.0 | 0.00 | 0.20 | 0.19 | 43 | 1008.5 |
| 20260504150503 | 58 | 215 | 5.0 | 12.0 | 0.00 | 0.20 | 0.19 | 43 | 1007.7 |
| 20260504141003 | 58 | 202 | 5.0 | 12.0 | 0.00 | 0.20 | 0.19 | 53 | 1007.7 |
| 20260504140503 | 58 | 199 | 5.0 | 12.0 | 0.00 | 0.20 | 0.19 | 53 | 1007.5 |
| 20260504130503 | 57 | 202 | 7.0 | 14.0 | 0.00 | 0.20 | 0.19 | 53 | 1007.4 |
| 20260504110503 | 55 | 198 | 6.0 | 13.0 | 0.00 | 0.20 | 0.19 | 56 | 1006.7 |
| 20260504110213 | 55 | 201 | 6.0 | 12.0 | 0.00 | 0.20 | 0.19 | 53 | 1006.7 |
| 20260504100503 | 55 | 205 | 7.0 | 13.0 | 0.00 | 0.20 | 0.19 | 45 | 1006.5 |
| 20260504082003 | 52 | 190 | 4.0 | 9.0 | 0.00 | 0.20 | 0.19 | 90 | 1006.1 |
| 20260504081503 | 51 | 194 | 4.0 | 7.0 | 0.00 | 0.20 | 0.19 | 92 | 1006.2 |
| 20260504081003 | 51 | 200 | 3.0 | 7.0 | 0.00 | 0.20 | 0.19 | 91 | 1006.0 |
| 20260504080503 | 51 | 197 | 2.0 | 5.0 | 0.00 | 0.20 | 0.19 | 92 | 1006.1 |